Casper, WY

3:15 PM MDT on May 28, 2017 (GMT -0600)
Natrona County International

Weather History for KCPR - September, 2012

Change the Weather History Date:

Wednesday, September 12, 2012

  Actual Average Record
Temperature  
Mean Temperature 55 °F 60 °F  
Max Temperature 72 °F 76 °F 94 °F (1990)
Min Temperature 37 °F 43 °F 25 °F (2014)
Degree Days  
Heating Degree Days 10 6  
Month to date heating degree days 29 54  
Since 1 July heating degree days 39 100  
Cooling Degree Days 0 1  
Month to date cooling degree days 32 19  
Year to date cooling degree days 697 416  
Growing Degree Days 4 (Base 50)    
Moisture  
Dew Point 31 °F    
Average Humidity 51    
Maximum Humidity 77    
Minimum Humidity 24    
Precipitation  
Precipitation 0.00 in 0.03 in 0.29 in (1957)
Month to date precipitation 0.14 0.37  
Year to date precipitation 6.27 9.45  
Snow  
Snow 0.00 in 0.00 in - ()
Month to date snowfall 0.0 0.2  
Since 1 July snowfall 0.0 0.2  
Since 1 September snowfall 0.0 0.2  
Snow Depth 0.00 in    
Sea Level Pressure  
Sea Level Pressure 30.17 in    
Wind  
Wind Speed 7 mph (North)    
Max Wind Speed 12 mph    
Max Gust Speed -    
Visibility 10 miles    
Events      
T = Trace of Precipitation, MM = Missing Value Source: NWS Daily Summary

Daily Weather History Graph

Daily Weather History Graph

Search for Another Location

Airport or City:

Trip Planner

Search our weather history database for the weather conditions in past years. The results will help you decide how hot, cold, wet, or windy it might be!

Date:

Astronomy

Sep. 12, 2012 Rise Set
Actual Time 6:42 AM MDT 7:20 PM MDT
Civil Twilight 6:14 AM MDT 7:48 PM MDT
Nautical Twilight 5:40 AM MDT 8:22 PM MDT
Astronomical Twilight 5:05 AM MDT 8:57 PM MDT
Moon 2:58 AM MDT (9/12) 5:12 PM MDT (9/12)
Length of Visible Light 13h 34m
Length of Day
12h 37m
Waning Crescent, 13% of the Moon is Illuminated
Sep 12
Waning Crescent
Sep 15
New
Sep 22
First Quarter
Sep 29
Full
Oct 8
Last Quarter

Hourly Weather History & Observations

Time (MDT) Temp. Windchill Dew Point Humidity Pressure Visibility Wind Dir Wind Speed Gust Speed Precip Events Conditions
12:53 AM 53.1 °F - 23.0 °F 31% 30.03 in 10.0 mi NNE 9.2 mph - N/A   Mostly Cloudy
1:53 AM 46.0 °F 41.9 °F 25.0 °F 44% 30.06 in 10.0 mi NNE 8.1 mph - N/A   Clear
2:53 AM 45.0 °F 39.7 °F 24.1 °F 44% 30.05 in 10.0 mi North 10.4 mph - N/A   Clear
3:53 AM 41.0 °F 35.2 °F 25.0 °F 53% 30.08 in 10.0 mi NNW 9.2 mph - N/A   Clear
4:53 AM 39.9 °F 36.7 °F 24.1 °F 53% 30.11 in 10.0 mi West 4.6 mph - N/A   Clear
5:53 AM 37.9 °F 34.4 °F 23.0 °F 55% 30.14 in 10.0 mi WNW 4.6 mph - N/A   Clear
6:53 AM 37.0 °F 34.5 °F 23.0 °F 57% 30.17 in 10.0 mi NW 3.5 mph - N/A   Clear
7:53 AM 43.0 °F 39.5 °F 24.1 °F 47% 30.19 in 10.0 mi NW 5.8 mph - N/A   Clear
8:53 AM 48.9 °F - 25.0 °F 39% 30.18 in 10.0 mi NNW 4.6 mph - N/A   Clear
9:53 AM 52.0 °F - 28.9 °F 41% 30.18 in 10.0 mi Calm Calm - N/A   Clear
10:53 AM 57.0 °F - 36.0 °F 45% 30.17 in 10.0 mi ESE 4.6 mph - N/A   Clear
11:53 AM 61.0 °F - 37.0 °F 41% 30.14 in 10.0 mi Variable 3.5 mph - N/A   Clear
12:53 PM 63.0 °F - 37.9 °F 40% 30.14 in 10.0 mi East 3.5 mph - N/A   Clear
1:53 PM 66.9 °F - 39.0 °F 36% 30.12 in 10.0 mi North 4.6 mph - N/A   Clear
2:53 PM 69.8 °F - 35.6 °F 28% 30.23 in 10.0 mi NNE 8.1 mph - N/A   Clear
3:53 PM 68.0 °F - 33.1 °F 27% 30.13 in 10.0 mi Calm Calm - N/A   Partly Cloudy
4:53 PM 68.0 °F - 30.9 °F 25% 30.14 in 10.0 mi NE 11.5 mph - N/A   Mostly Cloudy
5:53 PM 66.9 °F - 32.0 °F 27% 30.16 in 10.0 mi East 10.4 mph - N/A   Partly Cloudy
6:53 PM 64.9 °F - 33.1 °F 31% 30.19 in 10.0 mi East 11.5 mph - N/A   Partly Cloudy
7:53 PM 59.0 °F - 42.1 °F 53% 30.23 in 10.0 mi East 11.5 mph - N/A   Partly Cloudy
8:53 PM 55.9 °F - 43.0 °F 62% 30.26 in 10.0 mi NNE 8.1 mph - N/A   Clear
9:53 PM 48.9 °F - 41.0 °F 74% 30.29 in 10.0 mi North 8.1 mph - N/A   Clear
10:53 PM 48.0 °F - 28.0 °F 46% 30.30 in 10.0 mi North 6.9 mph - N/A   Clear
11:53 PM 44.1 °F 40.1 °F 28.0 °F 53% 30.31 in 10.0 mi NW 6.9 mph - N/A   Clear